Time,TemperatureF,DewpointF,PressureIn,WindDirection,WindDirectionDegrees,WindSpeedMPH,WindSpeedGustMPH,Humidity,HourlyPrecipIn,Conditions,Clouds,dailyrainin,SoftwareType,DateUTC
2013-05-18 00:01:00,51.0,-46.0,30.25,SE,137,0.0,6.0,1,0.00,,,0.05,,2013-05-18 07:01:00,
2013-05-18 00:11:00,51.0,-46.0,30.25,North,0,0.0,0.0,1,0.00,,,0.03,,2013-05-18 07:11:00,
2013-05-18 00:21:00,51.0,-46.0,30.25,North,0,0.0,0.0,1,0.00,,,0.03,,2013-05-18 07:21:00,
2013-05-18 00:31:00,51.0,-46.0,30.25,SSE,148,3.0,6.0,1,0.00,,,0.03,,2013-05-18 07:31:00,
2013-05-18 00:42:00,51.0,-46.0,30.25,SSE,147,1.0,8.0,1,0.00,,,0.03,,2013-05-18 07:42:00,
2013-05-18 00:52:00,51.0,-46.0,30.25,SSE,147,1.0,8.0,1,0.00,,,0.03,,2013-05-18 07:52:00,
2013-05-18 01:01:00,51.0,-46.0,30.25,SE,140,1.0,7.0,1,0.00,,,0.03,,2013-05-18 08:01:00,
2013-05-18 01:21:00,51.0,-46.0,30.25,SSE,151,3.0,8.0,1,0.00,,,0.03,,2013-05-18 08:21:00,
2013-05-18 01:32:00,51.0,-46.0,30.25,SE,144,4.0,8.0,1,0.00,,,0.03,,2013-05-18 08:32:00,
2013-05-18 01:42:00,51.0,-46.0,30.25,SE,144,4.0,8.0,1,0.00,,,0.03,,2013-05-18 08:42:00,
2013-05-18 01:52:00,51.0,-46.0,30.25,SSE,149,4.0,9.0,1,0.00,,,0.03,,2013-05-18 08:52:00,
2013-05-18 02:02:00,51.0,-46.0,30.25,SE,144,4.0,10.0,1,0.00,,,0.03,,2013-05-18 09:02:00,
2013-05-18 02:21:00,51.0,-46.0,30.25,SE,126,3.0,9.0,1,0.00,,,0.03,,2013-05-18 09:21:00,
2013-05-18 02:32:00,51.0,-46.0,30.24,ESE,113,3.0,9.0,1,0.00,,,0.03,,2013-05-18 09:32:00,
2013-05-18 02:43:00,51.0,-46.0,30.24,ESE,113,3.0,9.0,1,0.00,,,0.03,,2013-05-18 09:43:00,
2013-05-18 02:53:00,51.0,-46.0,30.24,SE,144,4.0,10.0,1,0.00,,,0.03,,2013-05-18 09:53:00,
2013-05-18 03:02:00,51.0,-46.0,30.24,SE,142,4.0,10.0,1,0.00,,,0.03,,2013-05-18 10:02:00,
2013-05-18 03:12:00,51.0,-46.0,30.24,SE,144,4.0,11.0,1,0.00,,,0.01,,2013-05-18 10:12:00,
2013-05-18 03:22:00,51.0,-46.0,30.24,SE,144,4.0,11.0,1,0.00,,,0.01,,2013-05-18 10:22:00,
2013-05-18 03:33:00,51.0,-46.0,30.24,SSE,151,5.0,10.0,1,0.00,,,0.01,,2013-05-18 10:33:00,
2013-05-18 03:42:00,51.0,-46.0,30.24,SSE,151,5.0,10.0,1,0.00,,,0.01,,2013-05-18 10:42:00,
2013-05-18 03:52:00,51.0,-46.0,30.24,South,177,6.0,10.0,1,0.00,,,0.01,,2013-05-18 10:52:00,
2013-05-18 04:02:00,51.0,-46.0,30.24,South,172,4.0,11.0,1,0.00,,,0.01,,2013-05-18 11:02:00,
2013-05-18 04:12:00,51.0,-46.0,30.24,SSE,166,5.0,11.0,1,0.00,,,0.00,,2013-05-18 11:12:00,
2013-05-18 04:22:00,51.0,-46.0,30.24,SSE,166,5.0,11.0,1,0.00,,,0.00,,2013-05-18 11:22:00,
2013-05-18 04:33:00,51.0,-46.0,30.24,SE,142,7.0,13.0,1,0.00,,,0.00,,2013-05-18 11:33:00,
2013-05-18 04:42:00,51.0,-46.0,30.24,SE,142,7.0,13.0,1,0.00,,,0.00,,2013-05-18 11:42:00,
2013-05-18 04:52:00,51.0,-46.0,30.24,SSE,152,7.0,13.0,1,0.00,,,0.00,,2013-05-18 11:52:00,
2013-05-18 05:01:00,51.0,-46.0,30.23,SSE,149,5.0,12.0,1,0.00,,,0.00,,2013-05-18 12:01:00,
2013-05-18 05:22:00,51.0,-46.0,30.24,SSE,148,5.0,12.0,1,0.00,,,0.00,,2013-05-18 12:22:00,
2013-05-18 05:33:00,51.0,-46.0,30.24,SE,145,3.0,10.0,1,0.00,,,0.00,,2013-05-18 12:33:00,
2013-05-18 05:41:00,51.0,-46.0,30.24,SE,145,3.0,10.0,1,0.00,,,0.00,,2013-05-18 12:41:00,
2013-05-18 05:52:00,51.0,-46.0,30.24,SE,128,5.0,10.0,1,0.00,,,0.00,,2013-05-18 12:52:00,
2013-05-18 06:01:00,51.0,-46.0,30.24,SSE,149,4.0,12.0,1,0.00,,,0.01,,2013-05-18 13:01:00,
2013-05-18 06:21:00,50.0,-47.0,30.24,SE,131,4.0,11.0,1,0.03,,,0.03,,2013-05-18 13:21:00,
2013-05-18 06:32:00,50.0,-47.0,30.24,SSE,161,3.0,9.0,1,0.03,,,0.03,,2013-05-18 13:32:00,
2013-05-18 06:43:00,50.0,-47.0,30.24,SSE,161,3.0,9.0,1,0.03,,,0.03,,2013-05-18 13:43:00,
2013-05-18 06:52:00,50.0,-47.0,30.24,South,183,3.0,8.0,1,0.04,,,0.04,,2013-05-18 13:52:00,
2013-05-18 07:03:00,50.0,-47.0,30.25,SSE,149,5.0,9.0,1,0.04,,,0.04,,2013-05-18 14:03:00,
2013-05-18 07:22:00,50.0,-47.0,30.25,SSE,151,6.0,9.0,1,0.02,,,0.05,,2013-05-18 14:22:00,
2013-05-18 07:32:00,50.0,-47.0,30.25,SE,130,5.0,11.0,1,0.02,,,0.05,,2013-05-18 14:32:00,
2013-05-18 07:42:00,50.0,-47.0,30.25,SE,130,5.0,11.0,1,0.02,,,0.05,,2013-05-18 14:42:00,
2013-05-18 07:54:00,50.0,-47.0,30.26,ESE,123,4.0,14.0,1,0.01,,,0.05,,2013-05-18 14:54:00,
2013-05-18 08:03:00,50.0,-47.0,30.26,SSE,162,4.0,12.0,1,0.01,,,0.05,,2013-05-18 15:03:00,
2013-05-18 08:12:00,50.0,-47.0,30.26,SE,142,6.0,11.0,1,0.00,,,0.05,,2013-05-18 15:12:00,
2013-05-18 08:23:00,50.0,-47.0,30.26,SE,142,6.0,11.0,1,0.00,,,0.05,,2013-05-18 15:23:00,
2013-05-18 08:33:00,50.0,-47.0,30.26,SSE,155,7.0,12.0,1,0.00,,,0.05,,2013-05-18 15:33:00,
2013-05-18 08:43:00,50.0,-47.0,30.26,SSE,155,7.0,12.0,1,0.00,,,0.05,,2013-05-18 15:43:00,
2013-05-18 08:53:00,51.0,-46.0,30.26,SE,133,3.0,9.0,1,0.00,,,0.05,,2013-05-18 15:53:00,
2013-05-18 09:02:00,52.0,-46.0,30.26,SSW,193,4.0,14.0,1,0.00,,,0.05,,2013-05-18 16:02:00,
2013-05-18 09:22:00,51.0,-46.0,30.27,South,182,6.0,14.0,1,0.00,,,0.05,,2013-05-18 16:22:00,
2013-05-18 09:32:00,52.0,-46.0,30.27,SSE,147,4.0,13.0,1,0.00,,,0.05,,2013-05-18 16:32:00,
2013-05-18 09:41:00,52.0,-46.0,30.27,SSE,147,4.0,13.0,1,0.00,,,0.05,,2013-05-18 16:41:00,
2013-05-18 09:52:00,52.0,-46.0,30.27,SE,130,7.0,13.0,1,0.00,,,0.05,,2013-05-18 16:52:00,
2013-05-18 10:02:00,52.0,-46.0,30.27,SSE,152,6.0,12.0,1,0.00,,,0.05,,2013-05-18 17:02:00,
2013-05-18 10:22:00,53.0,-45.0,30.27,SSE,151,8.0,15.0,1,0.00,,,0.05,,2013-05-18 17:22:00,
2013-05-18 10:32:00,53.0,-45.0,30.27,SE,144,6.0,17.0,1,0.00,,,0.05,,2013-05-18 17:32:00,
2013-05-18 10:42:00,53.0,-45.0,30.27,SE,144,6.0,17.0,1,0.00,,,0.05,,2013-05-18 17:42:00,
2013-05-18 10:52:00,53.0,-45.0,30.27,SSE,154,7.0,14.0,1,0.00,,,0.05,,2013-05-18 17:52:00,
2013-05-18 11:01:00,53.0,-45.0,30.27,SE,135,3.0,11.0,1,0.00,,,0.05,,2013-05-18 18:01:00,
2013-05-18 11:21:00,53.0,-45.0,30.27,SSE,147,6.0,12.0,1,0.00,,,0.05,,2013-05-18 18:21:00,
2013-05-18 11:31:00,53.0,-45.0,30.28,SE,140,0.0,12.0,1,0.00,,,0.05,,2013-05-18 18:31:00,
2013-05-18 11:41:00,53.0,-45.0,30.28,SSE,158,5.0,15.0,1,0.00,,,0.05,,2013-05-18 18:41:00,
2013-05-18 11:52:00,53.0,-45.0,30.28,SSE,158,5.0,15.0,1,0.00,,,0.05,,2013-05-18 18:52:00,
2013-05-18 12:01:00,53.0,-45.0,30.29,South,175,4.0,12.0,1,0.00,,,0.05,,2013-05-18 19:01:00,
2013-05-18 12:21:00,53.0,-45.0,30.29,SSW,201,0.0,12.0,1,0.00,,,0.05,,2013-05-18 19:21:00,
2013-05-18 12:31:00,53.0,-45.0,30.29,SSE,154,1.0,8.0,1,0.01,,,0.06,,2013-05-18 19:31:00,
2013-05-18 12:42:00,53.0,-45.0,30.29,South,172,5.0,11.0,1,0.02,,,0.07,,2013-05-18 19:42:00,
2013-05-18 12:52:00,53.0,-45.0,30.29,South,172,5.0,11.0,1,0.02,,,0.07,,2013-05-18 19:52:00,
2013-05-18 13:01:00,54.0,-45.0,30.29,SSW,203,6.0,14.0,1,0.02,,,0.07,,2013-05-18 20:01:00,
2013-05-18 13:21:00,54.0,-45.0,30.30,SSW,201,7.0,15.0,1,0.02,,,0.07,,2013-05-18 20:21:00,
2013-05-18 13:32:00,54.0,-45.0,30.30,SSE,168,4.0,16.0,1,0.01,,,0.07,,2013-05-18 20:32:00,
2013-05-18 13:42:00,54.0,-45.0,30.30,SSE,168,4.0,16.0,1,0.01,,,0.07,,2013-05-18 20:42:00,
2013-05-18 13:52:00,53.0,-45.0,30.30,SSE,168,8.0,17.0,1,0.00,,,0.07,,2013-05-18 20:52:00,
2013-05-18 14:01:00,53.0,-45.0,30.30,South,177,6.0,16.0,1,0.00,,,0.07,,2013-05-18 21:01:00,
2013-05-18 14:21:00,53.0,-45.0,30.30,SSE,168,6.0,15.0,1,0.00,,,0.07,,2013-05-18 21:21:00,
2013-05-18 14:32:00,53.0,-45.0,30.30,South,177,6.0,18.0,1,0.01,,,0.08,,2013-05-18 21:32:00,
2013-05-18 14:43:00,53.0,-45.0,30.30,South,177,6.0,18.0,1,0.01,,,0.08,,2013-05-18 21:43:00,
2013-05-18 14:53:00,53.0,-45.0,30.30,South,190,6.0,15.0,1,0.01,,,0.08,,2013-05-18 21:53:00,
2013-05-18 15:02:00,53.0,-45.0,30.30,South,177,7.0,17.0,1,0.01,,,0.08,,2013-05-18 22:02:00,
2013-05-18 15:12:00,54.0,-45.0,30.31,South,170,8.0,20.0,1,0.01,,,0.08,,2013-05-18 22:12:00,
2013-05-18 15:23:00,54.0,-45.0,30.31,South,170,8.0,20.0,1,0.01,,,0.08,,2013-05-18 22:23:00,
2013-05-18 15:32:00,54.0,-45.0,30.31,South,175,7.0,17.0,1,0.00,,,0.08,,2013-05-18 22:32:00,
2013-05-18 15:42:00,54.0,-45.0,30.31,South,186,9.0,21.0,1,0.00,,,0.08,,2013-05-18 22:42:00,
2013-05-18 15:52:00,54.0,-45.0,30.31,South,186,9.0,21.0,1,0.00,,,0.08,,2013-05-18 22:52:00,
2013-05-18 16:01:00,55.0,-44.0,30.31,South,173,7.0,19.0,1,0.00,,,0.08,,2013-05-18 23:01:00,
2013-05-18 16:11:00,55.0,-44.0,30.32,South,173,5.0,18.0,1,0.00,,,0.08,,2013-05-18 23:11:00,
2013-05-18 16:21:00,55.0,-44.0,30.32,South,173,5.0,18.0,1,0.00,,,0.08,,2013-05-18 23:21:00,
2013-05-18 16:32:00,54.0,-45.0,30.32,South,173,7.0,18.0,1,0.00,,,0.08,,2013-05-18 23:32:00,
2013-05-18 16:41:00,54.0,-45.0,30.32,South,173,7.0,18.0,1,0.00,,,0.08,,2013-05-18 23:41:00,
2013-05-18 16:53:00,55.0,-44.0,30.32,SSE,154,8.0,17.0,1,0.00,,,0.08,,2013-05-18 23:53:00,
2013-05-18 17:01:00,55.0,-44.0,30.32,South,177,9.0,21.0,1,0.00,,,0.08,,2013-05-19 00:01:00,
2013-05-18 17:21:00,55.0,-44.0,30.32,SSW,193,3.0,15.0,1,0.00,,,0.08,,2013-05-19 00:21:00,
2013-05-18 17:31:00,55.0,-44.0,30.32,SSE,159,2.0,12.0,1,0.00,,,0.08,,2013-05-19 00:31:00,
2013-05-18 17:41:00,55.0,-44.0,30.32,SSE,159,2.0,12.0,1,0.00,,,0.08,,2013-05-19 00:41:00,
2013-05-18 17:52:00,55.0,-44.0,30.32,SSE,166,0.0,9.0,1,0.01,,,0.09,,2013-05-19 00:52:00,
2013-05-18 18:01:00,55.0,-44.0,30.33,South,182,7.0,9.0,1,0.01,,,0.09,,2013-05-19 01:01:00,
2013-05-18 18:21:00,55.0,-44.0,30.33,South,169,2.0,14.0,1,0.01,,,0.09,,2013-05-19 01:21:00,
2013-05-18 18:32:00,55.0,-44.0,30.33,SSW,198,6.0,13.0,1,0.02,,,0.10,,2013-05-19 01:32:00,
2013-05-18 18:41:00,55.0,-44.0,30.33,SSW,198,6.0,13.0,1,0.02,,,0.10,,2013-05-19 01:41:00,
2013-05-18 18:52:00,55.0,-44.0,30.33,South,175,7.0,13.0,1,0.01,,,0.10,,2013-05-19 01:52:00,
2013-05-18 19:01:00,55.0,-44.0,30.34,South,191,10.0,16.0,1,0.01,,,0.10,,2013-05-19 02:01:00,
2013-05-18 19:11:00,55.0,-44.0,30.34,SSW,194,7.0,16.0,1,0.01,,,0.10,,2013-05-19 02:11:00,
2013-05-18 19:21:00,55.0,-44.0,30.34,SSW,194,7.0,16.0,1,0.01,,,0.10,,2013-05-19 02:21:00,
2013-05-18 19:31:00,55.0,-44.0,30.35,SSW,196,8.0,12.0,1,0.00,,,0.10,,2013-05-19 02:31:00,
2013-05-18 19:42:00,55.0,-44.0,30.35,SSW,196,8.0,12.0,1,0.00,,,0.10,,2013-05-19 02:42:00,
2013-05-18 19:52:00,55.0,-44.0,30.35,SSW,198,5.0,11.0,1,0.00,,,0.10,,2013-05-19 02:52:00,
2013-05-18 20:01:00,55.0,-44.0,30.36,SSW,210,6.0,10.0,1,0.00,,,0.10,,2013-05-19 03:01:00,
2013-05-18 20:11:00,55.0,-44.0,30.36,SW,229,6.0,9.0,1,0.00,,,0.10,,2013-05-19 03:11:00,
2013-05-18 20:21:00,55.0,-44.0,30.36,SW,229,6.0,9.0,1,0.00,,,0.10,,2013-05-19 03:21:00,
2013-05-18 20:32:00,55.0,-44.0,30.36,WSW,238,0.0,8.0,1,0.00,,,0.10,,2013-05-19 03:32:00,
2013-05-18 20:42:00,55.0,-44.0,30.36,WSW,238,0.0,8.0,1,0.00,,,0.10,,2013-05-19 03:42:00,
2013-05-18 20:53:00,55.0,-44.0,30.36,North,0,0.0,0.0,1,0.00,,,0.10,,2013-05-19 03:53:00,
2013-05-18 21:02:00,55.0,-44.0,30.37,North,0,0.0,0.0,1,0.00,,,0.10,,2013-05-19 04:02:00,
2013-05-18 21:23:00,55.0,-44.0,30.38,North,0,0.0,0.0,1,0.00,,,0.10,,2013-05-19 04:23:00,
2013-05-18 21:33:00,55.0,-44.0,30.39,North,0,0.0,0.0,1,0.00,,,0.10,,2013-05-19 04:33:00,
2013-05-18 21:41:00,55.0,-44.0,30.39,North,0,0.0,0.0,1,0.00,,,0.10,,2013-05-19 04:41:00,
2013-05-18 21:52:00,55.0,-44.0,30.39,West,270,4.0,8.0,1,0.00,,,0.11,,2013-05-19 04:52:00,
2013-05-18 22:02:00,55.0,-44.0,30.40,West,274,0.0,9.0,1,0.02,,,0.13,,2013-05-19 05:02:00,
2013-05-18 22:21:00,54.0,-45.0,30.41,WNW,289,7.0,9.0,1,0.04,,,0.14,,2013-05-19 05:21:00,
2013-05-18 22:32:00,54.0,-45.0,30.40,WNW,295,9.0,11.0,1,0.06,,,0.17,,2013-05-19 05:32:00,
2013-05-18 22:42:00,54.0,-45.0,30.41,WNW,295,11.0,17.0,1,0.07,,,0.17,,2013-05-19 05:42:00,
2013-05-18 22:51:00,54.0,-45.0,30.41,WNW,295,11.0,17.0,1,0.07,,,0.17,,2013-05-19 05:51:00,
2013-05-18 23:01:00,53.0,-45.0,30.41,NNW,336,10.0,17.0,1,0.05,,,0.17,,2013-05-19 06:01:00,
2013-05-18 23:21:00,53.0,-45.0,30.42,NNW,343,9.0,16.0,1,0.03,,,0.17,,2013-05-19 06:21:00,
2013-05-18 23:31:00,53.0,-45.0,30.42,WNW,299,10.0,15.0,1,0.01,,,0.17,,2013-05-19 06:31:00,
2013-05-18 23:41:00,53.0,-45.0,30.42,NNW,331,10.0,20.0,1,0.00,,,0.17,,2013-05-19 06:41:00,
2013-05-18 23:52:00,53.0,-45.0,30.42,NNW,331,10.0,20.0,1,0.00,,,0.17,,2013-05-19 06:52:00,